Location: Izdebno
(52.6670°N, 16.2170°E)
Time: 10:58:06
(UTC+01:00)

Transit 2A - Pass Details

Date: 04 February 2023
Orbit: 591 x 964 km, 66.7° (Epoch: 21 March)

Event Time Altitude Azimuth Distance (km) Brightness Sun altitude
Rises 18:32:49 0° 246° (WSW) 3,084 10.6 -16.3°
Reaches altitude 10° 18:35:11 10° 254° (WSW) 2,225 9.7 -16.7°
Maximum altitude 18:39:59 40° 325° (NW) 1,143 7.1 -17.4°
Enters shadow 18:44:49 12° 32° (NNE) 2,292 8.1 -18.2°
Drops below altitude 10° 18:45:20 10° 34° (NE) 2,476 - -18.2°
Sets 18:48:06 0° 42° (NE) 3,474 - -18.7°
